Location: Borgo
(42.3939°N, 9.2791°E)
Time: 18:56:45
(UTC+00:00)

Cosmos 405 - Pass Details

Date: 24 January 2021
Orbit: 448 x 462 km, 81.3° (Epoch: 03 March)

Event Time Altitude Azimuth Distance (km) Brightness Sun altitude
Rises 17:23:16 0° 6° (N) 2,504 6.5 -10.6°
Reaches altitude 10° 17:25:53 10° 27° (NNE) 1,621 5.3 -11.1°
Enters shadow 17:28:07 18° 66° (ENE) 1,223 4.4 -11.5°
